Temp
74 72 72 71 72 70 70 71 72 72 72 72 72 72 71 70 70 69 68 67 67 67
74 73 73 73 71 70 72 72 72 71 70 70 70 71 70 68 68 68 67 66 66 66
73 73 73 72 71 72 72 72 71 70 70 70 70 70 69 67 67 67 66 65 64 63
74 73 72 72 72 71 71 70 70 70 69 69 68 68 67 67 67 65 64 63 62 61
73 72 72 71 71 71 70 70 69 69 68 68 67 67 67 67 65 66 62 61 59 58
72 72 71 70 70 71 70 69 69 69 68 67 66 66 66 67 68 63 61 59 57 56
72 72 71 70 70 69 69 68 68 67 65 64 64 63 64 64 62 61 60 58 56 56
71 71 70 69 69 68 68 68 67 64 62 62 63 66 61 61 60 59 58 57 58 57
71 72 70 69 68 67 67 66 65 62 61 61 66 67 67 61 58 59 58 57 57 59
71 70 69 68 67 66 65 64 62 61 60 58 58 65 66 66 58 58 58 57 57 59
70 69 68 67 66 65 64 62 60 60 58 57 59 64 65 65 57 57 58 58 58 56
70 68 66 66 67 65 62 60 60 59 58 58 58 63 63 60 55 56 57 57 56 58
68 67 68 68 66 62 61 60 61 60 59 60 58 61 62 58 55 52 52 51 53 61
69 68 69 67 63 60 60 59 59 59 58 59 58 58 60 60 54 53 52 52 52 52
MSLP
1010.71 1011.37 1011.81 1012.22 1012.49 1012.78 1012.99 1013.13 1013.37 1013.40 1013.49 1013.55 1013.41 1013.54 1013.56 1013.66 1013.74 1013.87 1013.96 1014.06 1014.10 1014.25
1010.63 1011.29 1011.80 1011.99 1012.29 1012.56 1012.74 1013.00 1013.33 1013.47 1013.52 1013.71 1013.56 1013.70 1013.92 1014.16 1014.19 1014.26 1014.51 1014.59 1014.54 1014.70
1010.71 1011.12 1011.52 1011.81 1012.22 1012.63 1012.86 1013.10 1013.37 1013.61 1013.83 1013.96 1013.91 1014.01 1014.09 1014.40 1014.48 1014.60 1014.86 1015.04 1014.98 1015.28
1010.71 1011.14 1011.51 1011.93 1012.30 1012.68 1012.98 1013.23 1013.48 1013.89 1014.11 1014.19 1014.28 1014.39 1014.46 1014.66 1014.73 1015.01 1015.19 1015.34 1015.52 1015.80
1010.70 1011.15 1011.62 1012.04 1012.42 1012.74 1013.13 1013.45 1013.82 1014.18 1014.35 1014.51 1014.55 1014.61 1014.64 1014.88 1014.96 1015.06 1015.48 1015.90 1016.03 1016.40
1010.59 1011.08 1011.63 1012.14 1012.55 1012.79 1013.27 1013.65 1014.04 1014.33 1014.64 1014.88 1015.02 1015.06 1014.96 1014.88 1015.01 1015.40 1015.82 1016.09 1016.25 1016.59
1010.43 1010.97 1011.58 1012.16 1012.55 1012.91 1013.35 1013.86 1014.29 1014.60 1014.88 1015.14 1015.26 1015.32 1015.25 1015.31 1015.51 1015.87 1016.15 1016.35 1016.46 1016.58
1010.42 1010.98 1011.65 1012.26 1012.53 1012.89 1013.26 1013.62 1014.11 1014.55 1014.97 1015.23 1015.43 1015.56 1015.66 1015.76 1015.86 1016.09 1016.29 1016.42 1016.54 1016.61
1010.37 1010.87 1011.60 1012.17 1012.66 1013.09 1013.54 1013.91 1014.28 1014.76 1015.09 1015.39 1015.58 1015.75 1015.89 1015.90 1016.06 1016.31 1016.42 1016.73 1016.77 1016.66
1010.57 1011.26 1011.89 1012.26 1012.77 1013.39 1013.85 1014.20 1014.73 1015.21 1015.45 1015.56 1015.56 1015.70 1016.00 1016.10 1016.23 1016.56 1016.64 1016.71 1016.71 1016.67
1010.42 1011.09 1011.71 1012.45 1013.09 1013.55 1014.02 1014.62 1015.14 1015.55 1015.85 1016.11 1016.10 1015.71 1015.81 1016.08 1016.31 1016.47 1016.41 1016.54 1016.58 1016.72
1010.49 1011.29 1011.99 1012.51 1012.99 1013.57 1014.27 1014.90 1015.32 1015.55 1015.96 1016.02 1015.96 1015.81 1015.76 1015.93 1016.37 1016.61 1016.60 1016.47 1016.18 1016.28
1010.49 1011.23 1011.93 1012.38 1013.07 1013.68 1014.17 1014.73 1015.06 1015.48 1015.62 1015.75 1015.98 1016.07 1016.01 1016.08 1016.43 1016.76 1016.77 1016.51 1016.36 1016.12
1010.74 1011.30 1011.81 1012.64 1013.18 1013.76 1014.35 1014.87 1015.18 1015.19 1015.37 1015.92 1016.07 1016.03 1016.05 1016.07 1016.43 1016.81 1016.84 1016.78 1016.64 1016.35
Wind_Speed
8 6 5 5 4 3 3 4 3 5 5 5 5 4 4 3 4 5 5 7 5 3
7 7 6 6 5 4 5 4 5 6 6 5 5 5 6 4 4 6 5 5 6 5
7 7 6 6 7 6 5 4 6 6 6 5 6 6 6 5 5 6 4 3 6 5
8 7 6 6 6 6 6 6 7 6 5 6 6 6 6 5 6 7 6 5 6 6
8 7 7 6 7 7 7 6 7 6 6 5 5 5 6 5 5 7 7 5 7 6
8 7 7 7 7 7 6 6 6 5 5 5 4 3 1 5 6 7 6 6 7 5
8 8 8 7 6 7 7 7 6 6 6 6 6 6 5 6 7 6 6 6 6 6
7 8 8 8 9 8 7 7 7 8 7 6 5 3 5 5 6 6 6 5 5 5
11 12 11 10 9 7 6 6 7 7 7 6 4 9 9 7 5 4 5 5 4 5
12 12 10 9 8 7 7 6 7 6 6 6 5 9 9 9 5 4 1 4 5 5
13 12 9 8 7 7 6 6 6 6 5 4 2 8 9 10 5 3 5 2 6 6
12 10 8 8 8 6 6 4 4 5 6 5 4 5 7 6 4 4 4 4 4 5
9 11 9 9 8 5 5 5 5 6 7 8 6 6 5 5 2 2 1 3 4 1
9 9 9 7 4 5 5 5 5 6 5 4 5 6 7 6 3 1 0 1 3 2
Wind_Direction
130 139 156 166 154 142 156 148 130 101 95 67 55 72 74 67 75 66 56 56 51 50
135 137 161 141 116 124 123 135 122 108 90 65 54 91 78 64 80 79 65 60 62 55
138 140 137 119 129 131 130 110 108 101 94 75 60 73 81 70 64 77 65 60 70 65
137 139 127 127 130 130 119 121 113 121 112 101 91 97 92 99 99 87 78 55 69 61
143 140 130 132 129 132 130 121 125 129 115 109 105 112 114 108 123 112 89 71 66 42
148 141 133 131 145 130 121 109 117 118 122 102 86 75 118 112 109 90 95 95 89 85
155 140 140 142 128 119 119 113 113 89 93 101 90 65 60 95 105 109 107 105 104 111
132 129 124 127 127 125 126 129 111 116 100 98 83 76 90 88 112 121 120 121 130 150
130 134 135 134 129 125 125 123 114 110 115 103 93 90 93 97 128 146 159 159 190 211
135 133 140 139 131 129 121 109 117 124 128 125 128 113 98 95 88 96 291 217 197 208
143 145 142 125 122 113 115 123 125 138 125 123 177 133 107 101 95 80 55 73 222 220
141 135 126 124 125 123 124 124 138 151 154 163 201 159 114 96 84 66 29 4 5 207
132 129 136 138 140 143 139 152 155 159 182 188 187 203 144 104 84 100 78 341 328 276
126 132 137 132 113 127 137 144 183 165 177 201 200 199 176 141 126 188 286 275 288 272